• In Kazakhstan
  • List of Countries
  • For 7 days
  • Water Temperature
  • Satellite Maps
  • Weather Map
  • News
  • Weather Widgets
  • user-avatar
    Login

    Hourly Weather San Juan

    Today, 19 July, Friday

    Time Temperature Precipitation Wind Pressure Humidity
    00:00 +7°C° 0 mm 1 mps 708 mmHg 47%
    01:00 +7°C° 0 mm 1 mps 708 mmHg 51%
    02:00 +6°C° 0 mm 1 mps 707 mmHg 52%
    03:00 +6°C° 0 mm 1 mps 706 mmHg 53%
    04:00 +6°C° 0 mm 1 mps 705 mmHg 54%
    05:00 +5°C° 0 mm 0 mps 706 mmHg 53%
    06:00 +5°C° 0 mm 0 mps 706 mmHg 53%
    07:00 +5°C° 0 mm 0 mps 706 mmHg 52%
    08:00 +9°C° 0 mm 1 mps 706 mmHg 46%
    09:00 +10°C° 0 mm 2 mps 706 mmHg 39%
    10:00 +13°C° 0 mm 3 mps 706 mmHg 33%
    11:00 +14°C° 0 mm 3 mps 705 mmHg 30%
    12:00 +17°C° 0 mm 4 mps 704 mmHg 27%
    13:00 +19°C° 0 mm 5 mps 703 mmHg 25%
    14:00 +19°C° 0 mm 4 mps 703 mmHg 24%
    15:00 +19°C° 0 mm 3 mps 702 mmHg 24%
    16:00 +19°C° 0 mm 2 mps 702 mmHg 24%
    17:00 +17°C° 0 mm 2 mps 702 mmHg 28%
    18:00 +15°C° 0 mm 2 mps 702 mmHg 32%
    19:00 +13°C° 0 mm 2 mps 701 mmHg 36%
    20:00 +12°C° 0 mm 2 mps 702 mmHg 37%
    21:00 +12°C° 0 mm 2 mps 702 mmHg 38%
    22:00 +12°C° 0 mm 2 mps 702 mmHg 39%
    23:00 +10°C° 0 mm 2 mps 702 mmHg 41%

    Tomorrow, 20 July, Saturday

    Time Temperature Precipitation Wind Pressure Humidity
    00:00 +9°C° 0 mm 2 mps 701 mmHg 44%
    01:00 +9°C° 0 mm 2 mps 701 mmHg 46%
    02:00 +9°C° 0 mm 1 mps 701 mmHg 49%
    03:00 +8°C° 0 mm 1 mps 700 mmHg 52%
    04:00 +7°C° 0 mm 0 mps 700 mmHg 56%
    05:00 +7°C° 0 mm 0 mps 700 mmHg 54%
    06:00 +7°C° 0 mm 0 mps 700 mmHg 53%
    07:00 +7°C° 0 mm 0 mps 699 mmHg 52%
    08:00 +11°C° 0 mm 1 mps 700 mmHg 45%
    09:00 +13°C° 0 mm 1 mps 700 mmHg 38%
    10:00 +16°C° 0 mm 2 mps 700 mmHg 31%
    11:00 +17°C° 0 mm 2 mps 699 mmHg 28%
    12:00 +19°C° 0 mm 2 mps 698 mmHg 24%
    13:00 +21°C° 0 mm 3 mps 697 mmHg 21%
    14:00 +21°C° 0 mm 2 mps 697 mmHg 20%
    15:00 +21°C° 0 mm 2 mps 697 mmHg 19%
    16:00 +22°C° 0 mm 1 mps 696 mmHg 19%
    17:00 +20°C° 0 mm 1 mps 696 mmHg 20%
    18:00 +18°C° 0 mm 2 mps 696 mmHg 22%
    19:00 +16°C° 0 mm 2 mps 695 mmHg 23%
    20:00 +16°C° 0 mm 3 mps 695 mmHg 21%
    21:00 +17°C° 0 mm 3 mps 695 mmHg 19%
    22:00 +17°C° 0 mm 4 mps 695 mmHg 16%
    23:00 +17°C° 0 mm 4 mps 695 mmHg 16%

    Day after tomorrow, 21 July, Sunday

    Time Temperature Precipitation Wind Pressure Humidity
    00:00 +17°C° 0 mm 4 mps 695 mmHg 15%
    01:00 +17°C° 0 mm 4 mps 695 mmHg 15%
    02:00 +17°C° 0 mm 5 mps 695 mmHg 14%
    03:00 +17°C° 0 mm 6 mps 695 mmHg 13%
    04:00 +18°C° 0 mm 7 mps 695 mmHg 11%
    05:00 +20°C° 0 mm 8 mps 695 mmHg 10%
    06:00 +19°C° 0 mm 9 mps 696 mmHg 9%
    07:00 +21°C° 0 mm 10 mps 696 mmHg 7%
    08:00 +23°C° 0 mm 9 mps 697 mmHg 7%
    09:00 +26°C° 0 mm 8 mps 698 mmHg 7%
    10:00 +27°C° 0 mm 6 mps 699 mmHg 6%
    11:00 +26°C° 0 mm 7 mps 698 mmHg 13%
    12:00 +24°C° 0 mm 8 mps 698 mmHg 20%
    13:00 +22°C° 0 mm 8 mps 697 mmHg 27%
    14:00 +21°C° 0 mm 8 mps 697 mmHg 32%
    15:00 +18°C° 0 mm 8 mps 698 mmHg 37%
    16:00 +17°C° 0 mm 8 mps 698 mmHg 42%
    17:00 +15°C° 0 mm 7 mps 699 mmHg 45%
    18:00 +14°C° 0 mm 7 mps 700 mmHg 47%
    19:00 +11°C° 0 mm 6 mps 701 mmHg 50%
    20:00 +10°C° 0 mm 7 mps 702 mmHg 44%
    21:00 +10°C° 0 mm 7 mps 703 mmHg 39%
    22:00 +9°C° 0 mm 7 mps 704 mmHg 34%
    23:00 +9°C° 0 mm 8 mps 704 mmHg 30%

    22 July, Monday

    Time Temperature Precipitation Wind Pressure Humidity
    00:00 +8°C° 0 mm 9 mps 705 mmHg 27%
    01:00 +8°C° 0 mm 11 mps 706 mmHg 23%
    02:00 +7°C° 0 mm 10 mps 706 mmHg 26%
    03:00 +6°C° 0 mm 9 mps 707 mmHg 29%
    04:00 +6°C° 0 mm 8 mps 707 mmHg 32%
    05:00 +5°C° 0 mm 7 mps 708 mmHg 32%
    06:00 +5°C° 0 mm 6 mps 708 mmHg 32%
    07:00 +5°C° 0 mm 4 mps 709 mmHg 32%
    08:00 +7°C° 0 mm 4 mps 709 mmHg 28%
    09:00 +8°C° 0 mm 4 mps 709 mmHg 24%
    10:00 +10°C° 0 mm 4 mps 709 mmHg 20%
    11:00 +11°C° 0 mm 4 mps 708 mmHg 20%
    12:00 +11°C° 0 mm 4 mps 707 mmHg 19%
    13:00 +12°C° 0 mm 4 mps 707 mmHg 19%
    14:00 +11°C° 0 mm 4 mps 707 mmHg 19%
    15:00 +11°C° 0 mm 4 mps 707 mmHg 20%
    16:00 +11°C° 0 mm 4 mps 707 mmHg 20%
    17:00 +10°C° 0 mm 4 mps 707 mmHg 22%
    18:00 +8°C° 0 mm 4 mps 708 mmHg 24%
    19:00 +8°C° 0 mm 3 mps 709 mmHg 26%
    20:00 +8°C° 0 mm 3 mps 709 mmHg 27%
    21:00 +7°C° 0 mm 3 mps 710 mmHg 28%
    22:00 +7°C° 0 mm 3 mps 710 mmHg 30%
    23:00 +5°C° 0 mm 3 mps 710 mmHg 31%

    23 July, Tuesday

    Time Temperature Precipitation Wind Pressure Humidity
    00:00 +5°C° 0 mm 2 mps 710 mmHg 32%
    01:00 +5°C° 0 mm 2 mps 710 mmHg 33%
    02:00 +4°C° 0 mm 2 mps 710 mmHg 34%
    03:00 +4°C° 0 mm 2 mps 710 mmHg 35%
    04:00 +3°C° 0 mm 2 mps 710 mmHg 36%
    05:00 +3°C° 0 mm 2 mps 711 mmHg 36%
    06:00 +3°C° 0 mm 2 mps 711 mmHg 36%
    07:00 +4°C° 0 mm 1 mps 712 mmHg 36%
    08:00 +6°C° 0 mm 1 mps 712 mmHg 32%
    09:00 +7°C° 0 mm 2 mps 712 mmHg 27%
    10:00 +9°C° 0 mm 2 mps 712 mmHg 23%
    11:00 +10°C° 0 mm 2 mps 712 mmHg 22%
    12:00 +10°C° 0 mm 2 mps 711 mmHg 21%
    13:00 +12°C° 0 mm 2 mps 711 mmHg 20%
    14:00 +12°C° 0 mm 2 mps 711 mmHg 20%
    15:00 +12°C° 0 mm 2 mps 711 mmHg 20%
    16:00 +12°C° 0 mm 2 mps 711 mmHg 20%
    17:00 +11°C° 0 mm 1 mps 711 mmHg 23%
    18:00 +10°C° 0 mm 1 mps 712 mmHg 26%
    19:00 +8°C° 0 mm 1 mps 712 mmHg 28%
    20:00 +8°C° 0 mm 1 mps 713 mmHg 29%
    21:00 +7°C° 0 mm 1 mps 713 mmHg 30%
    22:00 +7°C° 0 mm 1 mps 713 mmHg 31%
    23:00 +6°C° 0 mm 1 mps 714 mmHg 32%

    24 July, Wednesday

    Time Temperature Precipitation Wind Pressure Humidity
    00:00 +6°C° 0 mm 1 mps 714 mmHg 33%
    01:00 +5°C° 0 mm 1 mps 714 mmHg 34%
    02:00 +5°C° 0 mm 1 mps 714 mmHg 35%
    03:00 +4°C° 0 mm 0 mps 713 mmHg 36%
    04:00 +3°C° 0 mm 0 mps 713 mmHg 37%
    05:00 +3°C° 0 mm 0 mps 714 mmHg 37%
    06:00 +3°C° 0 mm 0 mps 714 mmHg 37%
    07:00 +4°C° 0 mm 0 mps 714 mmHg 36%
    08:00 +7°C° 0 mm 1 mps 714 mmHg 32%
    09:00 +9°C° 0 mm 1 mps 714 mmHg 27%
    10:00 +11°C° 0 mm 1 mps 714 mmHg 22%
    11:00 +12°C° 0 mm 1 mps 714 mmHg 21%
    12:00 +13°C° 0 mm 1 mps 713 mmHg 21%
    13:00 +14°C° 0 mm 1 mps 713 mmHg 20%
    14:00 +14°C° 0 mm 1 mps 713 mmHg 20%
    15:00 +14°C° 0 mm 1 mps 712 mmHg 20%
    16:00 +14°C° 0 mm 1 mps 712 mmHg 19%
    17:00 +12°C° 0 mm 1 mps 713 mmHg 23%
    18:00 +11°C° 0 mm 1 mps 713 mmHg 26%
    19:00 +9°C° 0 mm 1 mps 713 mmHg 29%
    20:00 +8°C° 0 mm 1 mps 713 mmHg 30%
    21:00 +8°C° 0 mm 1 mps 713 mmHg 31%
    22:00 +7°C° 0 mm 1 mps 712 mmHg 33%
    23:00 +7°C° 0 mm 1 mps 712 mmHg 34%
    Show more